Flag for U.S.A. Weather past 2 weeks in Aspen, Colorado, U.S.A.

Now
62 °F

Sunny.


Feels Like: 62 °F
Forecast: 49 / 75 °F
Wind: 6 mph from Southwest

Location: Aspen-Pitkin County Airport

Current Time: Sep 1, 2015 at 8:58:31 PM

Latest Report: Sep 1, 2015 at 7:53 PM


Visibility: 10 mi

Pressure: 29.95 "Hg (22.54 "Hg at 2411m altitude)

Humidity: 60%

Dew point: 48 °F

Location of AspenLocation

Historic Weather in Aspen — Graph

°F

Aspen temperature yesterday

Maximum temperature yesterday: 68 °F (at 4:53 PM)
Minimum temperature yesterday: 52 °F (at 10:53 PM)
Average temperature yesterday: 58 °F

Past Weeks' High & Low Weather Summary

 TemperatureHumidityPressure
High85 °F (Aug 25, 1:53 PM)93% (Aug 27, 2:53 AM)30.37 "Hg (Aug 27, 2:53 AM)
Low40 °F (Aug 19, 6:53 AM)12% (Aug 23, 3:53 PM)29.71 "Hg (Aug 18, 4:53 PM)
Average62 °F49%29.96 "Hg
* Reported Aug 17 6:57 PM — Sep 1 6:53 PM, Aspen, Weather by CustomWeather, © 2015

Note: Actual official high and low records may vary slightly from our data, if they occured in-between our weather recording intervals... More about our weather records

Advertising

Aspen weather history for previous 24 hours

 ConditionsComfort  
Time TempWeatherWind HumidityBarometerVisibility
6:53 PM
Tue, Sep 1
70 °FSunny.7 mph38%29.92 "Hg10 mi
5:53 PM76 °FSunny.6 mph30%29.90 "Hg10 mi
4:53 PM75 °FSunny.No wind28%29.90 "Hg10 mi
3:53 PM72 °FSunny.No wind30%29.94 "Hg10 mi
2:53 PM69 °FThundershowers. Partly sunny.5 mph36%29.98 "Hg10 mi
1:53 PM65 °FThundershowers. Mostly cloudy.6 mph59%30.02 "Hg10 mi
12:57 PM69 °FThundershowers. Partly sunny.20 mph44%30.30 "Hg10 mi
11:53 AM72 °FScattered clouds.8 mph35%29.96 "Hg10 mi
10:53 AM68 °FSunny.6 mph40%30.00 "Hg10 mi
9:53 AM63 °FScattered clouds.6 mph50%30.01 "Hg10 mi
8:53 AM57 °FSunny.No wind58%30.04 "Hg10 mi
7:53 AM51 °FPassing clouds.3 mph74%30.05 "Hg10 mi
6:53 AM46 °FPassing clouds.3 mph83%30.04 "Hg10 mi
5:53 AM46 °FClear.6 mph86%30.01 "Hg10 mi
4:53 AM48 °FClear.7 mph80%30.00 "Hg10 mi
3:53 AM46 °FClear.5 mph89%30.02 "Hg10 mi
2:53 AM48 °FClear.No wind83%30.02 "Hg10 mi
1:53 AM49 °FClear.7 mph84%30.02 "Hg10 mi
12:53 AM51 °FClear.6 mph80%30.00 "Hg10 mi
11:53 PM
Mon, Aug 31
52 °FPassing clouds.6 mph80%30.01 "Hg10 mi
10:53 PM52 °FClear.3 mph83%30.03 "Hg10 mi
8:53 PM54 °FPassing clouds.8 mph83%30.02 "Hg10 mi
Weather by CustomWeather, © 2015

See weather overviewHow to use our weather pages